Regional Weather Roundup
Issued by NWS Newport/Morehead, NC

Current Version | Previous Version | Graphics & Text | Print | Product List | Glossary On
Versions: 1 2 3 4 5 6 7 8 9 10 11 12 13 14 15 16 17 18 19 20 21 22 23 24 25 26 27 28 29 30 31 32 33 34 35 36 37 38 39 40 41 42 43 44 45 46 47 48 49 50
000 ASUS42 KMHX 280810 RWRMHX WEATHER ROUNDUP FOR EASTERN NORTH CAROLINA NATIONAL WEATHER SERVICE NEWPORT/MOREHEAD CITY NC 400 AM EDT MON JUL 28 2014 NOTE: "FAIR" INDICATES FEW OR NO CLOUDS BELOW 12,000 FEET WITH NO SIGNIFICANT WEATHER AND/OR OBSTRUCTIONS TO VISIBILITY NCZ015>017-031-032-045>047-102-103-280900- NORTH COAST CITY SKY/WX TMP DP RH WIND PRES REMARKS EDENTON CLOUDY 81 74 78 SW12 29.71S ELIZABETH CITY MOCLDY 79 74 84 SW13 29.69F KITTY HAWK MOSUNNY 80 76 86 SW7 29.70S MANTEO NOT AVBL $$ NCZ045>047-081-094-103-104-280900- CENTRAL COAST CITY SKY/WX TMP DP RH WIND PRES REMARKS FRISCO MOCLDY 81 80 97 SW17G25 29.76F SWANQUARTER N/A 82 N/A N/A SW7G18 29.71S $$ NCZ095-097-098-100-101-280900- SOUTHERN COAST CITY SKY/WX TMP DP RH WIND PRES REMARKS BEAUFORT PTCLDY 83 80 91 SW18 N/A CEDAR ISLAND N/A 82 N/A N/A S14G22 29.77F JACKSONVILLE CLOUDY 83 74 74 W9 29.77S NEWPORT NOT AVBL PINEY ISLAND MOSUNNY 84 81 90 SW16 29.75F FOG WILMINGTON MOCLDY 84 74 71 SW13 29.78F $$ NCZ011>013-027>030-043-044-078>080-089-090>093-098-280900- COASTAL PLAIN CITY SKY/WX TMP DP RH WIND PRES REMARKS AHOSKIE CLOUDY 76 72 86 CALM 29.70S CLINTON CLOUDY 83 74 74 W7 29.78S ELIZABETHTOWN CLOUDY 84 72 67 W8 29.79R GOLDSBORO CLOUDY 80 78 92 W9 29.73R GREENVILLE CLOUDY 81 73 78 SW7 29.76R HAVELOCK MOCLDY 82 76 81 S9G20 29.75F KENANSVILLE CLOUDY 79 72 79 SW3 29.78S KINSTON CLOUDY 81 73 77 SW8 29.76R NEW BERN MOCLDY 83 75 77 SW8 29.77S RICHLANDS CLOUDY 81 72 74 SW10G16 29.77R ROANOKE RAPIDS NOT AVBL ROCKY MOUNT CLOUDY 82 69 64 W10G18 29.72F WASHINGTON MOCLDY 79 74 84 S5 29.72F WHITEVILLE MOCLDY 82 73 72 SW7 29.80S $$ AMZ130-135-150-152-154-156-158-170-250-252-270-ANZ085-086-088-633-658-670-280900- MARINE OBSERVATIONS STATION/POSITION TIME TEMP WIND PRES WAVE SWELL AIR SEA DIR/SP/G HT/PER HT/PER (UTC) (F) (DEG/KT/KT) (MB) (FT/S) (FT/S) CHESAPEAKE LIGHT NOT AVBL BUOY 44014 0800 80 78 210/ 19/ 23 1004.3 3/ 5 2/10 DUCK 0800 82 67 210/ 15/ 21 1004.7 2E DUCK 0800 N/A 2/10 OREGON INLET 0800 82 82 200/ 20/ 23 1006.1 BUOY 44095 0800 78 N/A 4/ 5 20E OREGON INLET NOT AVBL HATTERAS CG 0800 81 82 220/ 13/ 19 1008.1 DIAMOND BUOY 0800 VRB 21/ 25 1007.7 5/ 5 2/10 CAPE LOOKOUT 0700 82 220/ 16/ 21 1008.5 BEAUFORT LAB 0800 83 83 220/ 9/ 14 1008.0 30 SE NEW RIVER 0800 83 81 230/ 17/ 21 1009.0 6/ 6 2/ 9 5 SE WRIGHTSVILL 0700 80 82 250/ 16/ 17 N/A BUOY 41002 0730 81 80 240/ 17/ 21 1014.0 6/ 6 BUOY 41004 0800 84 83 230/ 17/ 21 1010.9 5/ 6 2/10 $$

USA.gov is the U.S. government's official web portal to all federal, state and local government web resources and services.